IRNSS-1E

Last updated on Thu Aug 13 2026 00:03:00 GMT+0000 (Coordinated Universal Time)

1 41241U 16003A 26224.61271050 -.00000309 00000+0 00000+0 0 9991 2 41241 33.3555 58.9318 0020692 176.6900 57.7790 1.00277347 38647
UTC large
Height (km)
Speed (km/s)
/
Latitude / Longitude
Inclination (degrees)
Orbital Period (minutes)
Azimuth
Elevation
Range (km)
Doppler Factor

Next 0 passes for location: London (51.5072 / 0.1276)

No passes found over London.
IRNSS-1E